Weather in Yermolayevo

Russia / Udmurt Republic     56°08′25″N   53°15′51″E
temp.,
°C
wind,
m/s
gust,
m/s
humid.,
%
clouds,
%
prec.,
mm/h
press.,
hPa
HPBL,
m
9 december, thu
thu901:00−3s51193100 0.0 1029332
04:00−4s51093100 0.0 1029250
07:00−5sse41093100 0.0 1029202
10:00−5sse41092100 0.0 1029254
13:00−4sse41189100 0.0 1028315
16:00−4sse41187100 0.0 1026298
19:00−4sse41189100 0.0 1025300
22:00−4s3992100 0.0 1025217
10 december, fri
fri1001:00−4s3796100 0.3 1025275
04:00−3ssw2597100 3.4 1025227
07:00−5w2398100 1.1 102646
10:00−11nw229991 1.1 102820
13:00−8nnw48945 0.0 1029242
16:00−13nnw37935 0.0 103190
19:00−14n411915 0.0 1033204
22:00−15nne512895 0.0 1035244
11 december, sat
sat1101:00−16nne511925 0.0 1036197
04:00−17nne410935 0.0 1038172
07:00−18nne410935 0.0 1039166
10:00−17nne410915 0.0 1040171
13:00−13nne39915 0.0 1040203
16:00−15nne36945 0.0 104181
19:00−15n36935 0.0 104274
22:00−16n24925 0.0 104352
12 december, sun
sun1201:00−18nne21945 0.0 104410
04:00−18nne22946 0.0 104413
07:00−20wsw11975 0.0 10459
10:00−18nne11955 0.0 104610
13:00−12nnw008827 0.0 104519
16:00−16sse119121 0.0 10459
19:00−17s11935 0.0 10459
22:00−18ssw11945 0.0 10449
13 december, mon
mon1301:00−18ssw11955 0.0 10449
04:00−18ssw22955 0.0 104311
07:00−18sw229550 0.0 104212
10:00−18sw229472 0.0 104215
13:00−12wsw258943 0.0 1041107
16:00−15sw229397 0.0 104113
19:00−17sw229766 0.0 104014
22:00−16ssw2396100 0.0 103934